[[{"header":{"parameterUnit":"m.s-1","parameterCategory":1,"la1":30.2992,"la2":30.254,"lo1":-89.0895,"lo2":-89.0443,"dy":0.0025,"dx":0.0025,"nx":19,"ny":19,"refTime":"2026-05-08T21:00:00:Z","depth":0,"parameterNumber":2,"parameterNumberName":"U-component_of_WINDS"},"data":[0,0,0,-6.767,-6.7674,-6.7833,-6.7833,-6.8078,-6.8081,0,0,0,0,0,0,0,0,0,0,0,-6.765,-6.7653,-6.767,-6.7675,-6.7833,-6.7833,-6.8078,-6.8081,0,0,0,0,0,0,0,0,0,0,0,-6.7649,-6.7652,-6.7655,-6.7675,-6.7833,-6.7833,-6.8077,-6.7942,0,0,0,0,0,0,0,0,0,0,-6.7781,-6.7789,-6.7651,-6.7655,-6.7676,-6.7833,-6.7833,-6.7935,-6.7951,-6.8025,0,-6.8099,0,-6.8094,-6.81,-6.8101,0,0,0,-6.7654,-6.7776,-6.7795,-6.7656,-6.7678,-6.7833,-6.7756,-6.7943,-6.7961,-6.8046,-6.8102,-6.811,-6.8098,-6.8102,-6.8103,-6.86,-6.8603,0,0,-6.7646,-6.7693,-6.7783,-6.7807,-6.7787,-6.7751,-6.7761,-6.7953,-6.8017,-6.8103,-6.8115,-6.8102,-6.8104,-6.8106,-6.8597,-6.8601,0,0,0,-6.7634,-6.7688,-6.77,-6.7799,-6.7824,-6.7756,-6.7768,-6.8008,-6.8009,-6.8117,-6.8105,-6.8105,-6.8109,-6.8593,-6.8599,-6.8805,0,0,0,-6.7628,-6.768,-6.7698,-6.7728,-6.7821,-6.7919,-6.7819,-6.7996,-6.8016,-6.8104,-6.8106,-6.8112,-6.859,-6.8596,-6.8792,-6.8895,0,0,0,-6.763,-6.768,-6.7713,-6.773,-6.78,-6.7914,-6.7925,-6.7999,-6.801,-6.8101,-6.8112,-6.8587,-6.8595,-6.878,-6.8875,-6.9039,0,0,0,-6.7646,-6.7895,-6.7717,-6.7989,-6.7799,-6.8042,-6.7923,-6.8101,-6.8205,-6.8107,-6.859,-6.8598,-6.8776,-6.8863,-6.9027,-6.9185,-6.9256,0,0,-6.7985,-6.7937,-6.8093,-6.7939,-6.8225,-6.8014,-6.833,-6.838,-6.8345,-6.8517,-6.8528,-6.8796,-6.8874,-6.9037,-6.9637,-6.9694,0,0,0,-6.8217,-6.833,-6.8395,-6.8496,-6.8541,-6.8587,-6.8583,-6.8602,-6.8745,-6.8443,-6.8899,-6.8943,-6.9037,-6.911,-6.9159,-6.9235,-6.8634,-6.8633,-6.8633,-6.8763,-6.8706,-6.8961,-6.8923,-6.9023,-6.9017,-6.9091,-6.9115,-6.9028,-6.9137,-6.9187,-6.9558,-6.9647,-6.9682,-6.9763,-6.9266,-6.9267,-6.9268,-6.9269,-6.9254,-6.9404,-6.9283,-6.9487,-6.9425,-6.9594,-6.9598,-6.9531,-6.968,-6.9516,-6.9595,-6.942,-6.9746,-6.9814,-6.9284,-6.9281,-6.9279,-6.9278,-6.9277,-6.9604,-6.9666,-6.9685,-6.9825,-6.9939,-6.9891,-7.004,-6.9978,-6.9921,-7.0,-7.0045,-7.0042,-7.003,-7.0026,-7.0027,-7.0029,-7.003,-7.0031,-7.0031,-6.9961,-6.9975,-7.0108,-7.0177,-7.0233,-7.0299,-7.0296,-7.0349,-7.0392,-7.0335,-7.0335,-7.0238,-6.9789,-6.9677,-7.0051,-7.0048,-7.0045,-7.0043,-7.0042,-7.0477,-7.0351,-7.0556,-7.0613,-7.0688,-7.0805,-7.0724,-7.0839,-7.0874,-7.0949,-7.0835,-7.0513,-7.0459,-7.042,-7.0327,-7.0847,-7.0846,-7.0847,-7.0847,-7.0773,-7.0739,-7.0935,-7.103,-7.1116,-7.1064,-7.1297,-7.1297,-7.1277,-7.1295,-7.1211,-7.1083,-7.1046,-7.1013,-7.0961,-7.0873,-7.1521,-7.1521,-7.1522,-7.1087,-7.1059,-7.127,-7.1249,-7.1303,-7.135,-7.1568,-7.1681,-7.1631,-7.1548,-7.1308,-7.1279,-7.1071,-7.1006,-7.0917,-7.0838,-7.0675,0,0]},{"header":{"parameterUnit":"m.s-1","parameterCategory":1,"la1":30.2992,"la2":30.254,"lo1":-89.0895,"lo2":-89.0443,"dy":0.0025,"dx":0.0025,"nx":19,"ny":19,"refTime":"2026-05-08T21:00:00:Z","depth":0,"parameterNumber":3,"parameterNumberName":"V-component_of_WINDS"},"data":[0,0,0,2.1007,2.1007,2.1014,2.1015,2.1013,2.1013,0,0,0,0,0,0,0,0,0,0,0,2.1,2.0999,2.1007,2.1007,2.1014,2.1015,2.1013,2.1013,0,0,0,0,0,0,0,0,0,0,0,2.1,2.0999,2.0999,2.1007,2.1014,2.1015,2.1013,2.1011,0,0,0,0,0,0,0,0,0,0,2.1006,2.0994,2.0999,2.0999,2.1007,2.1014,2.1015,2.1011,2.1011,2.1005,0,2.1,0,2.1006,2.1012,2.1012,0,0,0,2.1011,2.0993,2.1001,2.0999,2.1007,2.1014,2.1012,2.1011,2.1011,2.1005,2.1,2.1,2.1006,2.1012,2.1012,2.0968,2.0968,0,0,2.1011,2.0997,2.1001,2.1,2.1,2.1012,2.1012,2.1011,2.1004,2.1,2.1,2.1006,2.1012,2.1012,2.0969,2.0968,0,0,0,2.1007,2.0997,2.1005,2.1,2.1002,2.1012,2.1013,2.1004,2.1008,2.1,2.1006,2.1012,2.1012,2.0969,2.0969,2.0937,0,0,0,2.1007,2.0995,2.1004,2.0996,2.1002,2.1004,2.1005,2.1008,2.1008,2.1006,2.1012,2.1012,2.097,2.0969,2.0938,2.0923,0,0,0,2.1001,2.0994,2.0994,2.0995,2.0998,2.1004,2.1008,2.1008,2.1011,2.1012,2.1012,2.097,2.0969,2.094,2.0925,2.0906,0,0,0,2.099,2.0965,2.0993,2.0967,2.0998,2.0985,2.1008,2.0998,2.0995,2.1012,2.097,2.0969,2.094,2.0927,2.0908,2.0886,2.0877,0,0,2.0951,2.0959,2.0945,2.0971,2.0949,2.0985,2.0959,2.0967,2.0979,2.0971,2.097,2.0938,2.0925,2.0907,2.0832,2.0824,0,0,0,2.0928,2.0917,2.0915,2.0912,2.0919,2.0923,2.0938,2.0942,2.0936,2.0973,2.0927,2.092,2.091,2.09,2.0893,2.0884,2.0964,2.0964,2.0965,2.0851,2.0869,2.0846,2.0864,2.0861,2.0877,2.0876,2.0883,2.0901,2.089,2.0887,2.0839,2.0827,2.0823,2.0813,2.0879,2.0879,2.0879,2.0879,2.0792,2.0779,2.0806,2.0792,2.0811,2.08,2.0815,2.0828,2.082,2.0843,2.0835,2.0857,2.0814,2.0806,2.0877,2.0877,2.0877,2.0877,2.0878,2.0741,2.0738,2.0744,2.0742,2.0739,2.0759,2.075,2.0767,2.0784,2.0775,2.0773,2.0773,2.0774,2.0774,2.0773,2.0773,2.0773,2.0773,2.0773,2.0685,2.0693,2.0684,2.0691,2.0691,2.0694,2.0712,2.0712,2.0717,2.073,2.0731,2.0748,2.0808,2.082,2.077,2.0771,2.0771,2.0771,2.0772,2.0615,2.0634,2.0619,2.062,2.063,2.0624,2.0648,2.0648,2.0651,2.0646,2.0667,2.0709,2.0718,2.0723,2.0734,2.0664,2.0664,2.0664,2.0664,2.057,2.0578,2.0567,2.0567,2.0569,2.0589,2.0571,2.0584,2.0601,2.0604,2.0617,2.0634,2.0639,2.0645,2.0652,2.0662,2.0576,2.0576,2.0576,2.0527,2.0536,2.0517,2.0535,2.0544,2.0551,2.0534,2.0531,2.0554,2.0573,2.0606,2.0609,2.0637,2.0645,2.0661,2.0671,2.069,0,0]}]]